EW3197 Weather Reports


Display with metric or nautical units.
time (UTC)temp
F
wind
direction
speed
MPH
gust
MPH
rain 1hr
in
rain 24hr
in
rain mn
in
humidity
%
barometer
mb
20260510105704 53 267 0.0 0.0 0.00 0.18 0.00 89 1011.9
20260510105204 53 267 0.0 0.0 0.00 0.19 0.00 89 1011.9
20260510104204 53 267 0.0 0.0 0.00 0.20 0.00 89 1011.8
20260510103704 53 267 0.0 0.0 0.00 0.20 0.00 89 1011.8
20260510102704 53 267 0.0 1.0 0.00 0.21 0.00 89 1011.6
20260510102204 53 267 0.0 1.0 0.00 0.21 0.00 89 1011.7
20260510101704 53 266 0.0 0.0 0.00 0.22 0.00 89 1011.6
20260510101204 53 266 0.0 2.0 0.00 0.23 0.00 89 1011.5
20260510100705 52 266 0.0 1.0 0.00 0.23 0.00 90 1011.3
20260510100204 52 266 0.0 2.0 0.00 0.24 0.00 90 1011.1
20260510095705 52 268 0.0 1.0 0.00 0.25 0.00 90 1011.2
20260510095205 52 268 0.0 1.0 0.00 0.26 0.00 90 1011.3
20260510094704 52 268 0.0 0.0 0.00 0.27 0.00 90 1011.1
20260510094204 52 268 0.0 1.0 0.00 0.28 0.00 90 1011.1
20260510093205 52 285 0.0 2.0 0.00 0.30 0.00 90 1010.9
20260510092704 52 286 0.0 2.0 0.00 0.31 0.00 90 1010.7
20260510092204 52 286 0.0 2.0 0.00 0.32 0.00 90 1010.5
20260510091705 52 286 0.0 1.0 0.00 0.32 0.00 90 1010.6
20260510091206 52 286 0.0 3.0 0.00 0.33 0.00 90 1010.5
20260510090704 52 114 0.0 1.0 0.00 0.33 0.00 90 1010.3
20260510090205 52 112 0.0 2.0 0.00 0.34 0.00 90 1010.2
20260510085704 52 214 0.0 1.0 0.00 0.34 0.00 90 1010.2
20260510085204 51 214 0.0 1.0 0.00 0.35 0.00 90 1010.5
20260510084705 51 214 0.0 1.0 0.00 0.35 0.00 90 1010.7
20260510083704 51 214 0.0 0.0 0.00 0.37 0.00 90 1010.7
20260510082705 51 214 0.0 0.0 0.00 0.38 0.00 90 1010.9
20260510082205 51 214 0.0 0.0 0.00 0.39 0.00 90 1011.0
20260510081204 51 214 0.0 0.0 0.00 0.40 0.00 90 1011.4
20260510080705 51 214 0.0 0.0 0.00 0.40 0.00 90 1011.5
20260510080205 51 214 0.0 0.0 0.00 0.41 0.00 90 1011.5
20260510075705 51 214 0.0 0.0 0.00 0.42 0.00 90 1011.3
20260510075205 51 214 0.0 0.0 0.00 0.42 0.00 90 1011.3
20260510074705 51 214 0.0 0.0 0.00 0.42 0.00 90 1011.7
20260510074204 50 214 0.0 0.0 0.00 0.42 0.00 90 1011.6
20260510073204 50 214 0.0 0.0 0.00 0.42 0.00 90 1011.6
20260510072705 50 214 0.0 0.0 0.00 0.42 0.00 90 1011.6
20260510072204 50 214 0.0 0.0 0.00 0.42 0.00 90 1011.7
20260510071704 49 214 0.0 0.0 0.00 0.42 0.00 90 1011.7
20260510071204 49 214 0.0 0.0 0.00 0.42 0.00 90 1011.6
20260510070203 50 214 0.0 0.0 0.00 0.42 0.00 90 1011.4
20260510065704 50 214 0.0 0.0 0.00 0.42 0.00 90 1011.3
20260510065204 50 214 0.0 0.0 0.00 0.42 0.00 90 1011.1
20260510064204 49 214 0.0 0.0 0.00 0.42 0.00 90 1011.1
20260510062704 50 214 0.0 0.0 0.00 0.42 0.00 90 1011.1
20260510062204 49 214 0.0 1.0 0.00 0.42 0.00 89 1011.0
20260510061703 49 214 0.0 1.0 0.00 0.42 0.00 89 1010.9
20260510060704 50 214 0.0 0.0 0.00 0.42 0.00 89 1011.0
20260510055703 50 214 0.0 0.0 0.00 0.42 0.00 89 1011.2
20260510055204 50 214 0.0 0.0 0.00 0.42 0.00 89 1011.2
20260510054204 50 214 0.0 0.0 0.00 0.42 0.00 89 1011.3
20260510053704 50 214 0.0 0.0 0.00 0.42 0.00 89 1011.3
20260510053204 50 214 0.0 0.0 0.00 0.42 0.00 89 1011.3
20260510052704 50 214 0.0 0.0 0.00 0.42 0.00 89 1011.1
20260510052204 50 214 0.0 0.0 0.00 0.42 0.00 89 1011.0
20260510051704 50 214 0.0 0.0 0.00 0.42 0.00 89 1011.0
20260510051204 50 214 0.0 0.0 0.00 0.42 0.00 88 1011.1
20260510050704 51 214 0.0 0.0 0.00 0.42 0.00 88 1011.1
20260510050203 51 214 0.0 0.0 0.00 0.42 0.00 88 1011.0
20260510045703 52 214 0.0 0.0 0.00 0.42 0.00 88 1011.0
20260510045204 52 214 0.0 0.0 0.00 0.42 0.00 88 1011.1
20260510044703 52 214 0.0 0.0 0.00 0.42 0.00 88 1011.1
20260510044203 53 214 0.0 1.0 0.00 0.42 0.00 89 1011.1
20260510043204 53 214 0.0 0.0 0.00 0.42 0.00 89 1011.0
20260510042704 53 214 0.0 1.0 0.00 0.42 0.00 89 1011.1
20260510042204 53 214 0.0 2.0 0.00 0.42 0.00 89 1011.1
20260510041204 52 123 0.0 0.0 0.00 0.42 0.00 89 1011.3
20260510040704 52 123 0.0 0.0 0.00 0.42 0.00 89 1011.2
20260510040204 52 123 0.0 0.0 0.00 0.42 0.00 89 1011.2
20260510034704 52 123 0.0 0.0 0.00 0.42 0.42 89 1010.9
20260510034203 52 129 0.0 3.0 0.00 0.42 0.42 89 1011.0
20260510033704 52 132 0.0 2.0 0.00 0.42 0.42 89 1011.1
20260510033204 52 133 0.0 3.0 0.00 0.42 0.42 89 1011.1
20260510032704 52 129 0.0 0.0 0.00 0.42 0.42 89 1011.0
20260510032204 52 129 0.0 1.0 0.00 0.42 0.42 89 1010.9
20260510031705 52 128 0.0 0.0 0.00 0.42 0.42 90 1010.9
20260510031204 52 128 0.0 0.0 0.00 0.42 0.42 90 1011.1
20260510030703 52 128 0.0 0.0 0.00 0.42 0.42 90 1011.0
20260510025704 52 128 0.0 0.0 0.00 0.42 0.42 90 1011.1
20260510025204 52 129 0.0 1.0 0.00 0.42 0.42 90 1011.0
20260510024704 52 128 0.0 0.0 0.00 0.42 0.42 90 1011.1
20260510024204 52 128 0.0 0.0 0.00 0.42 0.42 90 1011.0
20260510023704 52 128 0.0 1.0 0.00 0.42 0.42 90 1011.1
20260510023204 52 128 0.0 0.0 0.00 0.42 0.42 90 1011.0
20260510022204 51 128 0.0 0.0 0.00 0.42 0.42 90 1011.1
20260510021703 51 128 0.0 1.0 0.00 0.42 0.42 90 1011.1
20260510021205 51 128 0.0 1.0 0.00 0.42 0.42 90 1011.1
20260510020704 50 128 0.0 0.0 0.00 0.42 0.42 90 1011.2
20260510020203 50 128 0.0 0.0 0.00 0.42 0.42 90 1011.1
20260510015704 50 128 0.0 0.0 0.00 0.42 0.42 90 1011.1
20260510015204 50 128 0.0 0.0 0.00 0.42 0.42 89 1011.1
20260510014704 50 128 0.0 0.0 0.00 0.42 0.42 89 1011.3
20260510014204 49 128 0.0 0.0 0.00 0.42 0.42 89 1011.0
20260510013704 50 128 0.0 0.0 0.00 0.42 0.42 89 1011.1
20260510013204 50 128 0.0 1.0 0.00 0.42 0.42 89 1011.1
20260510012703 50 128 0.0 0.0 0.00 0.42 0.42 89 1011.3
20260510012204 50 128 0.0 1.0 0.00 0.42 0.42 89 1011.3
20260510011704 50 128 1.0 2.0 0.00 0.42 0.42 89 1011.3
20260510011204 51 128 0.0 0.0 0.00 0.42 0.42 89 1011.2
20260510010704 51 128 0.0 1.0 0.00 0.42 0.42 89 1011.4
20260510010204 51 128 0.0 2.0 0.00 0.42 0.42 89 1011.4
20260510005204 51 128 0.0 0.0 0.00 0.42 0.42 89 1011.0
20260510004705 51 128 0.0 1.0 0.00 0.42 0.42 89 1010.9
20260510003204 51 128 0.0 1.0 0.00 0.42 0.42 88 1010.6
20260510002704 51 128 0.0 0.0 0.00 0.42 0.42 88 1010.7
20260510002204 51 128 0.0 1.0 0.00 0.42 0.42 88 1010.5
20260510001704 52 128 0.0 1.0 0.00 0.42 0.42 88 1010.3
20260510001204 52 128 0.0 2.0 0.00 0.42 0.42 88 1010.2
20260510000204 52 128 0.0 0.0 0.00 0.42 0.42 88 1010.0
20260509234704 53 129 1.0 3.0 0.00 0.42 0.42 87 1009.9
20260509234203 53 137 0.0 2.0 0.00 0.42 0.42 88 1009.9
20260509233704 53 137 1.0 3.0 0.00 0.42 0.42 88 1009.9
20260509233204 53 124 0.0 3.0 0.00 0.42 0.42 88 1010.0
20260509232204 53 121 0.0 3.0 0.00 0.42 0.42 88 1010.0
20260509231703 53 123 0.0 2.0 0.00 0.42 0.42 88 1010.0
20260509231204 53 122 1.0 3.0 0.00 0.42 0.42 88 1010.0
20260509230204 53 111 1.0 2.0 0.00 0.42 0.42 88 1010.0
20260509225704 53 106 0.0 3.0 0.00 0.42 0.42 88 1010.1
20260509225204 53 101 1.0 3.0 0.00 0.42 0.42 88 1010.1
20260509224703 53 208 0.0 1.0 0.00 0.42 0.42 88 1010.3
20260509224203 53 208 0.0 1.0 0.00 0.42 0.42 88 1010.2
20260509223704 53 208 0.0 1.0 0.00 0.42 0.42 88 1010.3
20260509223204 53 208 0.0 0.0 0.00 0.42 0.42 88 1010.4
20260509222704 53 208 0.0 1.0 0.00 0.42 0.42 88 1010.4
20260509222204 54 208 0.0 1.0 0.00 0.42 0.42 88 1010.3
20260509221704 54 208 0.0 0.0 0.00 0.42 0.42 88 1010.3
20260509220704 54 208 0.0 2.0 0.00 0.42 0.42 88 1010.3
20260509220204 54 208 1.0 2.0 0.00 0.42 0.42 88 1010.3
20260509215704 54 208 0.0 1.0 0.00 0.42 0.42 88 1010.3
20260509215204 54 208 1.0 2.0 0.00 0.42 0.42 88 1010.3
20260509214704 54 208 0.0 3.0 0.00 0.42 0.42 88 1010.3
20260509214204 54 207 0.0 2.0 0.00 0.42 0.42 88 1010.3
20260509213704 54 207 0.0 2.0 0.01 0.42 0.42 88 1010.3
20260509213204 54 207 0.0 2.0 0.01 0.42 0.42 88 1010.4
20260509212204 54 207 0.0 1.0 0.01 0.42 0.42 88 1010.4
20260509211704 53 207 0.0 2.0 0.01 0.42 0.42 88 1010.3
20260509211203 53 208 1.0 2.0 0.02 0.42 0.42 88 1010.4
20260509210704 53 208 1.0 2.0 0.02 0.42 0.42 88 1010.4
20260509210204 53 204 1.0 3.0 0.02 0.42 0.42 88 1010.5
20260509205704 53 188 1.0 3.0 0.02 0.42 0.42 88 1010.5
20260509205204 53 173 1.0 6.0 0.03 0.42 0.42 89 1010.6
20260509204704 53 39 1.0 2.0 0.03 0.42 0.42 89 1010.6
20260509203704 53 37 1.0 3.0 0.02 0.41 0.41 89 1010.8
20260509203204 53 51 0.0 1.0 0.02 0.41 0.41 89 1010.8
20260509202704 53 51 0.0 1.0 0.03 0.41 0.41 89 1010.9
20260509202204 53 48 1.0 5.0 0.03 0.41 0.41 89 1010.9
20260509201203 54 35 1.0 3.0 0.03 0.40 0.40 89 1011.0
20260509200704 54 78 1.0 8.0 0.03 0.40 0.40 89 1011.2
20260509200204 54 195 2.0 3.0 0.04 0.40 0.40 89 1011.3
20260509195704 54 196 2.0 7.0 0.04 0.40 0.40 89 1011.4
20260509195205 54 225 1.0 7.0 0.03 0.39 0.39 89 1011.4
20260509193704 54 234 0.0 1.0 0.04 0.39 0.39 90 1011.5
20260509193204 55 234 0.0 2.0 0.05 0.39 0.39 90 1011.5
20260509192704 55 239 1.0 3.0 0.04 0.38 0.38 90 1011.5
20260509192204 54 280 0.0 1.0 0.04 0.38 0.38 90 1011.5
20260509191703 55 280 0.0 1.0 0.04 0.38 0.38 90 1011.4
20260509191204 54 280 0.0 1.0 0.03 0.37 0.37 90 1011.4
20260509190703 54 280 0.0 1.0 0.04 0.37 0.37 90 1011.3
20260509190204 54 280 1.0 3.0 0.03 0.36 0.36 90 1011.4
20260509185704 54 281 0.0 1.0 0.03 0.36 0.36 90 1011.5
20260509185203 54 281 0.0 1.0 0.04 0.36 0.36 90 1011.5
20260509184704 54 281 0.0 0.0 0.03 0.35 0.35 90 1011.5
20260509184204 54 281 0.0 2.0 0.03 0.35 0.35 90 1011.5
20260509183704 54 281 1.0 3.0 0.03 0.35 0.35 90 1011.5
20260509182704 53 281 0.0 1.0 0.03 0.34 0.34 90 1011.3
20260509182204 53 281 0.0 0.0 0.03 0.34 0.34 90 1011.4
20260509181704 53 281 0.0 0.0 0.03 0.34 0.34 90 1011.4
20260509181204 53 281 1.0 2.0 0.03 0.34 0.34 90 1011.5
20260509180703 53 281 1.0 3.0 0.02 0.33 0.33 90 1011.6
20260509180204 53 281 0.0 1.0 0.02 0.33 0.33 90 1011.5
20260509175704 53 281 0.0 1.0 0.02 0.33 0.33 90 1011.5
20260509174704 53 281 0.0 2.0 0.02 0.32 0.32 90 1011.6
20260509173704 52 281 0.0 0.0 0.03 0.32 0.32 90 1011.6
20260509173204 52 281 0.0 0.0 0.03 0.32 0.32 90 1011.6
20260509172204 52 281 0.0 2.0 0.02 0.31 0.31 90 1011.7
20260509171704 52 281 1.0 3.0 0.02 0.31 0.31 90 1011.8
20260509170704 52 281 0.0 2.0 0.02 0.32 0.31 90 1011.9
20260509170204 51 281 0.0 1.0 0.02 0.32 0.31 90 1012.1
20260509165704 51 281 0.0 0.0 0.03 0.32 0.31 90 1012.2
20260509165203 51 281 0.0 1.0 0.02 0.31 0.30 90 1012.3
20260509164705 51 281 0.0 1.0 0.02 0.31 0.30 90 1012.4
20260509164204 50 281 0.0 1.0 0.02 0.31 0.30 90 1012.5
20260509163704 50 281 0.0 1.0 0.01 0.30 0.29 89 1012.6
20260509163204 50 281 0.0 0.0 0.01 0.30 0.29 89 1012.6
20260509162704 50 281 0.0 1.0 0.01 0.30 0.29 90 1012.6
20260509162204 50 281 0.0 0.0 0.01 0.30 0.29 90 1012.5
20260509161704 50 281 1.0 3.0 0.01 0.30 0.29 90 1012.5
20260509161204 50 281 0.0 0.0 0.02 0.30 0.29 90 1012.6
20260509160705 50 281 1.0 2.0 0.02 0.30 0.29 90 1012.6
20260509160204 50 281 0.0 2.0 0.02 0.30 0.29 90 1012.7
20260509155204 49 281 0.0 1.0 0.01 0.29 0.28 90 1012.7
20260509154703 49 281 1.0 2.0 0.01 0.29 0.28 90 1012.7
20260509154204 49 281 0.0 1.0 0.01 0.29 0.28 90 1012.8
20260509153703 49 281 1.0 3.0 0.01 0.29 0.28 90 1012.9
20260509152704 49 281 0.0 2.0 0.01 0.29 0.28 90 1013.0
20260509152204 48 281 0.0 3.0 0.01 0.29 0.28 90 1013.0
20260509151204 49 278 1.0 3.0 0.00 0.28 0.27 90 1013.1
20260509150704 49 278 0.0 2.0 0.01 0.28 0.27 90 1013.1
20260509145705 48 296 0.0 2.0 0.01 0.28 0.27 90 1013.2
20260509145205 48 302 0.0 2.0 0.01 0.28 0.27 90 1013.1
20260509144705 48 302 0.0 2.0 0.01 0.28 0.27 90 1013.1
20260509144205 48 302 0.0 1.0 0.02 0.28 0.27 90 1013.1
20260509143205 47 302 0.0 0.0 0.02 0.28 0.27 90 1013.0
20260509142705 47 302 0.0 1.0 0.02 0.28 0.27 90 1013.1
20260509142205 46 302 0.0 1.0 0.02 0.28 0.27 90 1013.1
20260509141705 46 302 0.0 0.0 0.02 0.28 0.27 90 1013.2
20260509141205 46 302 0.0 0.0 0.02 0.28 0.27 90 1013.2
20260509140705 46 302 0.0 0.0 0.01 0.27 0.26 90 1013.2
20260509140205 45 302 0.0 1.0 0.01 0.27 0.26 90 1013.2
20260509135705 45 302 0.0 2.0 0.01 0.27 0.26 90 1013.1
20260509135205 45 299 0.0 1.0 0.01 0.27 0.26 90 1013.3
20260509134706 45 299 0.0 1.0 0.01 0.27 0.26 90 1013.2
20260509133706 45 299 1.0 3.0 0.00 0.26 0.25 90 1013.4
20260509133205 45 299 1.0 3.0 0.00 0.26 0.25 90 1013.3
20260509132705 45 299 0.0 2.0 0.00 0.26 0.25 90 1013.3
20260509132205 44 299 0.0 1.0 0.00 0.26 0.25 90 1013.3
20260509131705 44 299 0.0 2.0 0.00 0.26 0.25 90 1013.3
20260509131205 44 299 0.0 2.0 0.00 0.26 0.25 90 1013.5
20260509130705 44 299 0.0 1.0 0.00 0.26 0.25 90 1013.6
20260509130205 43 299 0.0 1.0 0.01 0.26 0.25 90 1013.7
20260509125705 43 299 1.0 2.0 0.01 0.26 0.25 90 1013.7
20260509125204 43 299 0.0 2.0 0.01 0.26 0.25 90 1013.7
20260509124706 43 299 1.0 2.0 0.01 0.26 0.25 90 1013.8
20260509124205 43 299 0.0 0.0 0.01 0.26 0.25 90 1013.7
20260509123705 43 299 0.0 0.0 0.01 0.26 0.25 90 1013.7
20260509122705 43 299 0.0 3.0 0.01 0.26 0.25 90 1013.7
20260509122205 43 299 0.0 3.0 0.01 0.26 0.25 90 1013.8
20260509121704 42 299 0.0 0.0 0.01 0.26 0.25 90 1013.9
20260509121205 42 299 0.0 1.0 0.01 0.26 0.25 90 1013.8
20260509120705 42 299 1.0 2.0 0.01 0.26 0.25 89 1013.8
20260509120205 42 299 1.0 3.0 0.00 0.25 0.24 89 1013.8
20260509115704 42 299 0.0 3.0 0.00 0.25 0.24 89 1013.8
20260509115204 42 299 0.0 0.0 0.01 0.25 0.24 89 1013.8
20260509114705 42 299 1.0 2.0 0.01 0.25 0.24 89 1013.9
20260509114205 42 299 0.0 1.0 0.02 0.25 0.24 89 1014.0
20260509113705 42 299 0.0 1.0 0.02 0.25 0.24 89 1014.0
20260509113204 41 299 0.0 0.0 0.03 0.25 0.24 89 1013.9
20260509112705 41 299 0.0 2.0 0.03 0.25 0.24 89 1014.0
20260509112205 41 299 0.0 0.0 0.03 0.25 0.24 89 1014.0
20260509111705 41 299 2.0 3.0 0.04 0.25 0.24 89 1014.0
20260509111205 41 298 1.0 2.0 0.05 0.25 0.24 89 1014.0
20260509110705 41 298 1.0 3.0 0.05 0.25 0.24 89 1013.9
20260509110205 41 298 1.0 3.0 0.06 0.25 0.24 89 1014.0